STARLINK-11190, 60911

Orbit data source: Space-Track

STARLINK-11190, 60911 is a payload satellite owned by SpaceX/Seattle (US) in LEO that was launched on Sat, 31 Aug 2024 UTC via an FALCON 9 launch vehicle from the Air Force Eastern Test Range (AFETR). Payload-class satellites include a variety of spacecraft equipped with specific instruments for various scientific and technological missions. These include communications satellites like Starlink; space stations such as the ISS; scientific satellites like the Hubble; Earth observation satellites from companies like Planet Labs, Umbra, and HawkEye 360; GPS; miniature CubeSats for education and research; and military/defense satellites.

Loading next visibility...
Identifier
60911, 2024-154J
Orbit
LEO
Country
Flag of USUS
Related business
Manufacturer
SpaceX/Seattle
Mission
Operational Commercial Communications
Bus & Motor
STARLINK V2MD, Unknown motor
Mass
960 kg wet, ~910 kg dry
Launch date (UTC)
2024-08-31 (2 years ago)
Launch vehicle
FALCON 9
Launch site
Air Force Eastern Test Range (AFETR)
Object type
Payload
Rocket body
Debris
Shape & HBR
Box + 2 Pan, 18.1 m
Radar Cross Section
36.964 m², Large (>1 m²)

Expand to show TLE details & history
Last TLE update: 1 day ago

TLE from 1 day ago
0 STARLINK-11190
1 60911U 24154J   26175.14231186  .00000380  00000-0  80002-5 0  9996
2 60911  53.1597 326.5161 0001163  79.4379 280.6770 15.69705939105227
Epoch: 2026-06-24T03:24Z
TLE epoch observation values (Epoch: 2026-06-24T03:24:55.744Z)
Latitude
-0.00002°
Longitude
2.98005°
Altitude
360.508 km
Speed
7.694 km/s
True Right ascension
21h 46m 03s
True Declination
0° 00' 00"
Sunlit
Object was in full shadow at epoch
Visualization orbit readout
Latitude
Unknown
Longitude
Unknown
Altitude
Unknown
Speed
Unknown
Apparent Right ascension
Unknown
Apparent Declination
Unknown
Sunlit
N/A
Visualization observer readout
Local Sidereal Time
18:28:29
Azimuth
Unknown
Elevation
Unknown
Doppler factor
Unknown
Orbital elements
Apogee altitude
360.783 km
Perigee altitude
359.215 km
Semi-major axis
6,738.136 km
Eccentricity
0.00012
Inclination
53.1597°
RAAN
326.5161°
Arg. of periapsis
79.4379°
True anomaly
280.6639°
Mean anomaly
280.677°
Eccentric anomaly
280.67045°
Mean motion
3.92404 °/min
Orbital period
91.74 mins
BSTAR
0.0000080002
Loading maneuver chart data...
Computing Atmospheric mass density...
Loading historical data...
Loading historical data...
Loading historical data...
Loading historical data...
Loading historical data...
Loading historical data...
Loading historical data...

Documentation

Showing up to 5 results
|